Regional Weather Roundup
Issued by NWS Wakefield, VA

Home | Current Version | Previous Version | Text Only | Print | Product List | Glossary Off
Versions: 1 2 3 4 5 6 7 8 9 10 11 12 13 14 15 16 17 18 19 20 21 22 23 24 25 26 27 28 29 30 31 32 33 34 35 36 37 38 39 40 41 42 43 44 45 46 47 48 49 50

000
ASUS41 KAKQ 280110
RWRAKQ

REGIONAL WEATHER ROUNDUP
NATIONAL WEATHER SERVICE WAKEFIELD VA
800 PM EST SAT DEC 27 2014

Note: "fair" indicates few or no clouds below 12,000 feet with no
significant weather and/or obstructions to visibility. * = Denotes
station may not report precipitation (e.g., rain,snow,etc.),
thunder or fog.

VAZ042-051-052>054-056-280200-
NORTHERN VIRGINIA

CITY           SKY/WX    TMP DP  RH WIND       PRES   REMARKS
WASH NATIONAL  MOCLDY    50  34  54 S8        30.17F
DULLES         MOCLDY    43  33  68 CALM      30.15F
FORT BELVOIR   PTCLDY    39  34  81 CALM      30.17F
QUANTICO       PTCLDY    43  35  73 SW3       30.19S
FREDERICKSBRG* PTCLDY    42  37  84 SE3       30.18R
STAFFORD*      CLEAR     38  31  76 CALM      30.22S
WARRENTON      PTCLDY    36  36 100 CALM      30.16S
CULPEPER*      PTCLDY    37  34  87 CALM      30.17S
MANASSAS*      PTCLDY    37  36  93 CALM      30.16S
LEESBURG*      PTCLDY    46  36  66 SW5       30.16S
WINCHESTER     PTCLDY    46  27  46 S3        30.12F
FRONT ROYAL*   PTCLDY    43  32  65 CALM      30.12S
LURAY*         PTCLDY    43  32  65 SW6       30.14S
$$

VAZ048-049-060>072-079>083-280200-
CENTRAL AND SOUTH CENTRAL VIRGINIA

CITY           SKY/WX    TMP DP  RH WIND       PRES   REMARKS
RICHMOND       MOCLDY    52  38  58 S9        30.19F
CHESTERFIELD*  PTCLDY    52  30  43 S5        30.20F
PETERSBURG*    PTCLDY    44  41  87 S3        30.21S
HANOVER        PTCLDY    46  37  71 S5        30.20S
TAPPAHANNOCK*  PTCLDY    51  35  54 CALM      30.20R
QUINTON*       PTCLDY    52  39  60 S7        30.20S
CHARLOTTSVILLE PTCLDY    52  34  50 CALM      30.16F
GORDONSVILLE*  PTCLDY    40  33  78 CALM      30.16F
ORANGE*        PTCLDY    41  34  75 CALM      30.18S
LOUISA*        PTCLDY    52  37  58 S3        30.16F
BUMPASS*       PTCLDY    44  36  73 CALM      30.18R
FARMVILLE*     MOCLDY    51  38  61 S3        30.18S
CREWE*         CLEAR     50  37  60 S3        30.19F
FORT PICKETT*  CLEAR     44  37  77 S7        30.20S
CHASE CITY*    CLEAR     51  42  70 CALM      30.21S
CLARKSVILLE*   CLEAR     50  37  62 CALM      30.20F
SOUTH HILL*    CLEAR     44  38  79 S5        30.28R
LAWRENCEVILLE* CLEAR     48  39  71 CALM      30.22R
EMPORIA*       CLEAR     48  37  66 CALM      30.24S
$$

VAZ088>098-280200-
SOUTHEAST VIRGINIA

CITY           SKY/WX    TMP DP  RH WIND       PRES   REMARKS
NORFOLK        PTCLDY    48  38  68 S7        30.23R
VIRGINIA BEACH PTCLDY    51  40  65 S5        30.23R
NORFOLK NAVAL  PTCLDY    55  39  54 S3        30.23S
WEST POINT*    PTCLDY    48  38  66 CALM      30.22S
SALUDA*        FAIR      49  38  63 CALM      30.20S
NEWPORT NEWS   PTCLDY    54  39  57 S9        30.21F
LANGLEY AFB    PTCLDY    49  38  64 S5        30.22S
FORT EUSTIS    PTCLDY    51  49  95 S5        30.20S
WILLIAMSBURG*  CLEAR     46  41  81 S5        30.21F
HR EXEC AP*    PTCLDY    43  37  81 S5        30.25S
FRANKLIN*      PTCLDY    43  39  87 CALM      30.23S
WAKEFIELD      PTCLDY    43  39  86 CALM      30.21F
$$

VAZ020-022-025-037-045-280200-
WEST CENTRAL AND SOUTHWEST VIRGINIA

CITY           SKY/WX    TMP DP  RH WIND       PRES   REMARKS
STAUNTON*      PTCLDY    44  26  51 CALM      30.16F
WAYNESBORO*    PTCLDY    45  24  43 CALM      30.15F
HOT SPRINGS VA CLOUDY    50  16  26 SW10G16   30.16S
LYNCHBURG      CLOUDY    51  36  56 CALM      30.20S
DANVILLE       CLOUDY    56  36  47 S3        30.20F
SOUTH BOSTON*  CLEAR     52  38  58 CALM      30.20F
MARTINSVILLE   CLOUDY    51  40  66 CALM      30.22S
ROANOKE        CLOUDY    56  32  40 E7        30.19S
BLACKSBURG     MOCLDY    52  27  37 SE3       30.21S
DUBLIN*        CLOUDY    55  31  40 S7        30.19S
MARION*        CLOUDY    50  29  44 CALM      30.21S
HILLSVILLE*    CLOUDY    50  34  53 SE5       30.20S
RICHLANDS*     CLOUDY    52  15  23 SE3       30.16F
WISE*          CLOUDY    50  27  40 S3        30.16S
ABINGDON*      CLOUDY    51  34  52 CALM      30.16F
$$

MDZ021>025-VAZ099-100-280200-
SOUTHERN MARYLAND AND THE DELMARVA PENINSULA

CITY           SKY/WX    TMP DP  RH WIND       PRES   REMARKS
PATUXENT RIVER CLEAR     37  34  89 CALM      30.18F
BAY BRIDGE APT   N/A     43  36  75 SE6       30.16F
LEONARDTOWN    CLEAR     39  34  81 CALM      30.20S
DOVER          CLEAR     40  38  93 S3        30.15F
GEORGETOWN     PTCLDY    45  39  79 S3        30.19F
EASTON         CLEAR     46  39  76 CALM      30.20F
CAMBRIDGE      CLEAR     43  37  81 SE3       30.18F
SALISBURY      PTCLDY    41  36  82 SE3       30.19F
OCEAN CITY     PTCLDY    46  40  79 SW6       30.21S
WALLOPS ISLAND CLEAR     45  42  89 SW8       30.21S
ACCOMACK*      PTCLDY    46  39  76 S8        30.21S
$$

NCZ012>017-030>032-280200-
NORTH CENTRAL AND EASTERN NORTH CAROLINA

CITY           SKY/WX    TMP DP  RH WIND       PRES   REMARKS
ROANOKE RAPIDS CLEAR     45  37  76 CALM      30.23S
RALEIGH        MOCLDY    54  38  54 S5        30.23F
ELIZABETH CITY CLEAR     50  41  71 S5        30.25R
AHOSKIE*       PTCLDY    41  38  89 CALM      30.25R
EDENTON*         N/A     47  42  82 S5        30.25S
CURRITUCK*     CLEAR     47  38  71 CALM      30.25S
KILL DEVIL HLS CLEAR     49  40  70 SW3       30.25R
MANTEO         CLEAR     48  45  87 CALM      30.26R
CAPE HATTERAS  CLEAR     42  40  92 S3        30.26S
TARBORO*       PTCLDY    43  40  90 CALM      30.26R
GOLDSBORO      PTCLDY    47  47  97 E2        30.23R
WASHINGTON     CLEAR     48  41  77 CALM      30.26R
GREENVILLE     PTCLDY    45  41  87 CALM      30.26R
NEW BERN       CLEAR     50  42  74 S5        30.26F
WILMINGTON     CLEAR     48  44  86 CALM      30.25F
$$

VAZ048-280200-
ELSEWHERE

CITY           SKY/WX    TMP DP  RH WIND       PRES   REMARKS
HARRISBURG PA  PTCLDY    38  32  79 SE6       30.13F
BALTIMORE      MOCLDY    45  32  60 CALM      30.15F
ANNAPOLIS      PTCLDY    43  37  79 CALM      30.15F
ANDREWS AFB    PTCLDY    45  35  67 S8        30.16F
PHILADELPHIA   MOCLDY    47  34  60 SW6       30.18S
HENDERSON NC   MOCLDY    50  37  60 S5        30.22S
GREENSBORO     MOCLDY    53  39  59 S7        30.20S
ROCKY MOUNT    PTCLDY    46  41  82 CALM      30.24S
$$

VAZ100-280200-
MARINE

STATION/POSITION TIME  TEMP    WIND        PRES    WAVE   SWELL
                       AIR SEA DIR/SP/G            HT/PER HT/PER
                 (UTC) (F)     (DEG/KT/KT) (MB)    (FT/S) (FT/S)
CAPE MAY NJ      0100   46 46  170/  6/  9 1021.8F
LEWES DE         0100   47 44  200/  4/  6 1022.1F
15NM E FENWICK I 0100   47 45              1022.8F   3/14
OCEAN-CITY-INLET 0100   46 46  220/  5/  5 1022.7F
WACHAPREAGUE VA  0100   45 48  210/  4/  5 1022.9F
THOMAS POINT MD  0100   45 43  180/  9/  9 1022.2F
GOOSES REEF MD   0100   44     VRB  6/  8  1020.8F   0
COVE POINT MD    0100   45     180/  8/  8 1021.9S
SOLOMONS ISLAND  0100      44                N/A
BISHOPS HEAD MD  0100   46 46  150/  8/  8 1021.8F
PINEY POINT MD   0100          120/  2/  3   N/A
POTOMAC MD       0100   45 43  180/  4/  6 1021.3F   0
CAMBRIDGE MD     0100   48 43  150/  4/  6 1021.6F
LEWISETTA VA     0100   43 45     CALM     1022.0S
RAPPAHANNOCK LGT 0100          140/  9/ 10 1023.3R
STINGRAY PT      0100   47 45  200/  6/  8 1023.2R   1
YORK RVR RNG VA  0100   49     190/  9/  9 1022.4F
YORKTOWN VA      0100   52 46  180/  4/  5 1022.7F
JAMESTOWN VA     0100   47 46  160/  2/  4   N/A     0
DOMINION TERM VA 0100   51     190/  6/  7 1023.5S
KIPTOPEKE VA     0100      51  170/  8/  9   N/A
CHES BAY BRIDGE  0100   52 46  160/  8/  9 1023.3R
CAPE HENRY VA    0100   50     180/  4/  7 1022.6R
CHESAPEAKE LGHT  0000   50     180/ 18/ 18 1024.0R
WILLOUBY STN VA  0100   54     190/ 10/ 12 1023.8F
S CRANEY ISL VA  0100          170/  6/  7 1023.4F
CAPE HENRY BUOY  0000      48                N/A     2/14   2/14
1ST LANDING BUOY 0100   48 45  170/  4/  6 1023.2F   1/ 5
CAPE CHARLES BUO 0100      48                N/A     2/15   2/15
64NM E OF VA BCH 0100   53 53  170/  8/ 10 1023.3F   3/15   3/15
DUCK PIER NC     0100   51 49  190/  9/ 11 1023.5S
44100 DUCK FRF   0100      50                N/A     3/15   3/15
44056 DUCK FRF   0000      48                N/A     3/15   3/15
OREGON INLET NC  0100   51 53  180/  5/  6 1024.3R
HATTERAS NC      0100   53 55  170/  2/  3 1025.1R
DIAMOND SHLS NC  0100   64                 1025.0F   4/15
CAPE LOOKOUT NC  0000   56     160/  6/  7 1024.7F
$$



USA.gov is the U.S. government's official web portal to all federal, state and local government web resources and services.